Hourly Data Report for March 09, 2020

All times are specified in Local Standard Time (LST). Add 1 hour to adjust for Daylight Saving Time where and when it is observed.

OTTAWA INTL A
ONTARIO
Current Station Operator: NAVCAN

45°19'00.000" N
75°40'00.000" W
114.90 m
6106001
71628
YOW

Download Data

Hourly Data (March 2020)
Hourly Data Report for March 9, 2020
TIME Temp Definition
°C
Dew Point Definition
°C
Rel Hum Definition
%
Wind Dir Definition
10's deg

Wind Spd Definition
km/h
Visibility Definition
km
Stn Press Definition
kPa
Hmdx Definition


Wind Chill Definition


Weather Definition


00:00 4.1 -2.9 60 20 13 24.1 100.52     LegendNANA
01:00 5.0 -3.2 55 20 16 24.1 100.55     Cloudy
02:00 4.9 -3.3 55 20 16 24.1 100.55     LegendNANA
03:00 4.7 -3.4 56 20 17 24.1 100.52     LegendNANA
04:00 4.5 -3.3 57 19 13 24.1 100.51     Mostly Cloudy
05:00 4.5 -3.2 57 19 12 24.1 100.50     LegendNANA
06:00 4.0 -3.2 59 19 11 24.1 100.50     LegendNANA
07:00 3.8 -3.0 61 19 12 24.1 100.52     Mainly Clear
08:00 4.9 -2.5 59 20 14 24.1 100.54     LegendNANA
09:00 6.5 -2.2 53 21 13 24.1 100.56     LegendNANA
10:00 8.6 -2.0 47 22 18 24.1 100.54     Mainly Clear
11:00 10.0 -2.0 43 22 11 24.1 100.55     LegendNANA
12:00 11.6 -1.8 39 20 13 24.1 100.50     LegendNANA
13:00 12.4 -1.6 38 19 13 24.1 100.45     Mostly Cloudy
14:00 12.2 -1.3 39 19 14 24.1 100.39     LegendNANA
15:00 11.9 -0.9 41 20 14 24.1 100.37     LegendNANA
16:00 11.6 -0.6 43 19 15 24.1 100.34     Mostly Cloudy
17:00 10.0 -0.5 48 22 12 24.1 100.43     LegendNANA
18:00 9.1 0.2 54 20 13 24.1 100.45     Rain
19:00 8.5 1.5 62 19 13 24.1 100.44     Cloudy
20:00 7.7 2.1 68 21 8 12.9 100.51     Rain
21:00 5.7 2.7 81 16 9 12.9 100.48     Rain
22:00 6.0 3.9 87 16 12 24.1 100.42     Cloudy
23:00 5.6 3.0 84 16 8 24.1 100.41     Rain

Notes on Data Quality.

Legend

  • E = Estimated
  • M = Missing
  • NA = Not Available*
  • [empty] = Indicates an unobserved value
Date modified: